EW2373 Weather Reports


Display with metric or nautical units.
time (UTC)temp
F
wind
direction
speed
MPH
gust
MPH
rain 1hr
in
rain 24hr
in
rain mn
in
humidity
%
barometer
mb
20260905213018 97 325 0.0 0.0 0.00 0.00 0.00 43 1011.0
20260905211539 98 49 0.0 0.0 0.00 0.00 0.00 42 1011.0
20260905210010 97 247 0.0 0.0 0.00 0.00 0.00 41 1011.2
20260905204507 95 262 0.0 0.0 0.00 0.00 0.00 41 1011.5
20260905203003 93 288 0.0 0.0 0.00 0.00 0.00 42 1011.8
20260905201606 90 226 0.0 0.0 0.00 0.00 0.00 46 1011.9
20260905200115 88 340 0.0 0.0 0.00 0.00 0.00 51 1012.1
20260905194549 92 272 0.0 0.0 0.00 0.00 0.00 49 1012.2
20260905193045 94 323 0.0 0.0 0.00 0.00 0.00 47 1012.0
20260905191540 97 332 0.0 0.0 0.00 0.00 0.00 43 1012.0
20260905190038 99 328 0.0 0.0 0.00 0.00 0.00 41 1012.1
20260905184532 99 285 0.0 0.0 0.00 0.00 0.00 40 1012.1
20260905183032 99 293 0.0 0.0 0.00 0.00 0.00 40 1012.4
20260905181523 98 340 0.0 0.0 0.00 0.00 0.00 41 1012.4
20260905180018 98 354 0.0 0.0 0.00 0.00 0.00 41 1012.6
20260905174513 99 291 0.0 0.0 0.00 0.00 0.00 40 1012.7
20260905173022 98 246 0.0 0.0 0.00 0.00 0.00 42 1012.7
20260905171505 98 360 0.0 0.0 0.00 0.00 0.00 41 1013.0
20260905170116 98 257 0.0 0.0 0.00 0.00 0.00 41 1013.3
20260905170001 98 233 0.0 0.0 0.00 0.00 0.00 41 1013.2
20260905164556 97 250 0.0 0.0 0.00 0.00 0.00 41 1013.3
20260905163052 97 274 0.0 0.0 0.00 0.00 0.00 41 1013.4
20260905161547 96 354 0.0 0.0 0.00 0.00 0.00 40 1013.4
20260905160042 96 10 0.0 0.0 0.00 0.00 0.00 39 1013.5
20260905154537 96 108 0.0 0.0 0.00 0.00 0.00 38 1013.7
20260905153033 95 335 0.0 0.0 0.00 0.00 0.00 36 1013.7
20260905151529 94 259 0.0 0.0 0.00 0.00 0.00 35 1013.9
20260905150025 93 321 0.0 0.0 0.00 0.00 0.00 32 1013.7
20260905144520 92 312 0.0 0.0 0.00 0.00 0.00 29 1013.6
20260905143015 91 262 0.0 0.0 0.00 0.00 0.00 26 1013.7
20260905141522 91 294 0.0 0.0 0.00 0.00 0.00 20 1013.8
20260905140007 88 322 0.0 0.0 0.00 0.00 0.00 16 1014.0
20260905134501 87 245 0.0 0.0 0.00 0.00 0.00 9 1014.1
20260905133058 85 280 0.0 0.0 0.00 0.00 0.00 1 1014.0
20260905131552 83 262 0.0 0.0 0.00 0.00 0.00 1 1014.1
20260905130048 82 251 0.0 0.0 0.00 0.00 0.00 1 1014.0
20260905124543 80 224 0.0 0.0 0.00 0.00 0.00 1014.0
20260905123038 0 224 0.0 0.0 0.00 0.00 0.00 1014.0
20260905121535 0 0.0 0.0 0.00 0.00 0.00 1014.0
20260905120030 0 0.0 0.0 0.00 0.00 0.00 1013.8
20260905114525 0 0.0 0.0 0.00 0.00 0.00 1013.7
20260905113022 0 0.0 0.0 0.00 0.00 0.00 1013.6
20260905111518 0 0.0 0.0 0.00 0.00 0.00 1013.6
20260905110015 0 0.0 0.0 0.00 0.00 0.00 1013.4
20260905104511 0 0.0 0.0 0.00 0.00 0.00 1013.5
20260905103006 0 0.0 0.0 0.00 0.00 0.00 1013.4
20260905101507 0 225 0.0 0.0 0.00 0.00 0.00 1013.5
20260905100002 0 224 0.0 0.0 0.00 0.00 0.00 1013.5
20260905094558 0 224 0.0 0.0 0.00 0.00 0.00 1013.4
20260905093053 0 224 0.0 0.0 0.00 0.00 0.00 1013.4
20260905091601 0 224 0.0 0.0 0.00 0.00 0.00 1013.2
20260905090044 0 224 0.0 0.0 0.00 0.00 0.00 1013.1
20260905084539 74 224 0.0 0.0 0.00 0.00 0.00 1 1013.1
20260905083035 74 224 0.0 0.0 0.00 0.00 0.00 1 1013.1
20260905081533 74 224 0.0 0.0 0.00 0.00 0.00 1 1013.2
20260905080026 75 224 0.0 0.0 0.00 0.00 0.00 1 1013.4
20260905074530 75 224 0.0 0.0 0.00 0.00 0.00 1 1013.4
20260905073017 75 224 0.0 0.0 0.00 0.00 0.00 1 1013.5
20260905071518 76 224 0.0 0.0 0.00 0.00 0.00 1 1013.4
20260905070008 77 224 0.0 0.0 0.00 0.00 0.00 1 1013.4
20260905064504 77 224 0.0 0.0 0.00 0.00 0.00 1 1013.4
20260905063102 78 224 0.0 0.0 0.00 0.00 0.00 1 1013.4
20260905061556 78 229 0.0 0.0 0.00 0.00 0.00 1 1013.5
20260905060050 76 221 0.0 0.0 0.00 0.00 0.00 1 1013.6
20260905054552 76 249 0.0 0.0 0.00 0.00 0.00 1 1013.6
20260905053041 76 249 0.0 0.0 0.00 0.00 0.00 1 1013.6
20260905051537 77 248 0.0 0.0 0.00 0.00 0.00 1 1013.6
20260905050033 77 249 0.0 0.0 0.00 0.00 0.00 1 1013.6
20260905044529 78 249 0.0 0.0 0.00 0.00 0.00 1 1013.7
20260905043027 78 249 0.0 0.0 0.00 0.00 0.00 1 1013.9
20260905041523 78 249 0.0 0.0 0.00 0.00 0.00 3 1013.9
20260905040030 79 249 0.0 0.0 0.00 0.00 0.00 5 1013.8
20260905034524 79 249 0.0 0.0 0.00 0.00 0.00 10 1013.8
20260905033010 79 248 0.0 0.0 0.00 0.00 0.00 14 1013.8
20260905031506 80 249 0.0 0.0 0.00 0.00 0.00 19 1013.9
20260905030105 80 249 0.0 0.0 0.00 0.00 0.00 21 1013.7
20260905024602 81 249 0.0 0.0 0.00 0.00 0.00 25 1013.6
20260905023052 81 249 0.0 0.0 0.00 0.00 0.00 29 1013.5
20260905021548 82 249 0.0 0.0 0.00 0.00 0.00 35 1013.3
20260905020043 83 249 0.0 0.0 0.00 0.00 0.00 39 1013.3
20260905014539 84 249 0.0 0.0 0.00 0.00 0.00 42 1013.2
20260905013038 84 249 0.0 0.0 0.00 0.00 0.00 45 1013.1
20260905011529 0 249 0.0 0.0 0.00 0.00 0.00 1013.0
20260905010028 0 249 0.0 0.0 0.00 0.00 0.00 1012.9
20260905004520 88 249 0.0 0.0 0.00 0.00 0.00 53 1012.7
20260905003015 90 249 0.0 0.0 0.00 0.00 0.00 53 1012.6
20260905001511 93 249 0.0 0.0 0.00 0.00 0.00 49 1012.6
20260905000006 95 249 0.0 0.0 0.00 0.00 0.00 46 1012.5
20260904234502 98 240 0.0 0.0 0.00 0.00 0.00 42 1012.5
20260904233057 98 240 0.0 0.0 0.00 0.00 0.00 42 1012.4
20260904231553 98 255 0.0 0.0 0.00 0.00 0.00 41 1012.3
20260904230108 98 263 0.0 0.0 0.00 0.00 0.00 41 1012.4
20260904224543 98 250 0.0 0.0 0.00 0.00 0.00 40 1012.5
20260904223039 99 238 0.0 0.0 0.00 0.00 0.00 40 1012.4
20260904221535 99 252 0.0 0.0 0.00 0.00 0.00 40 1012.5
20260904220031 99 231 0.0 0.0 0.00 0.00 0.00 39 1012.4
20260904214526 99 246 0.0 0.0 0.00 0.00 0.00 39 1012.6